This demonstration page uses our WeatherBlox Daily Observations layout. Learn more.

Left ArrowRight Arrow

39.29038, -76.61219

Hourly Observations for June 12, 2020

Temp ( °F °C ) Dew Point ( °F °C ) Humidity (%) Winds ( mph kmh ) Pressure ( in mb ) Visibility ( mi km ) Precip ( " mm )
12:54 am 00:54 Mostly Cloudy 76 24.4 57 13.9 52 52 NW 5 7 30.11 1020 10 16 0.00 0.00
1:54 am 01:54 Mostly Cloudy 74 23.3 57 13.9 56 56 Calm 30.11 1020 10 16 0.00 0.00
2:54 am 02:54 Mostly Cloudy 74 23.3 55 12.8 52 52 NW 8 13 30.11 1020 10 16 0.00 0.00
3:54 am 03:54 Partly Cloudy 70 21.1 56 13.3 61 61 WNW 6 9 30.12 1020 10 16 0.00 0.00
4:54 am 04:54 Mostly Clear 67 19.4 56 13.3 68 68 WNW 5 7 30.12 1020 10 16 0.00 0.00
5:54 am 05:54 Mostly Sunny 66 18.9 55 12.8 68 68 WNW 5 7 30.14 1021 10 16 0.00 0.00
6:54 am 06:54 Mostly Sunny 68 20 56 13.3 65 65 WNW 6 9 30.15 1021 10 16 0.00 0.00
7:54 am 07:54 Mostly Sunny 74 23.3 57 13.9 56 56 W 5 7 30.14 1021 10 16 0.00 0.00
8:54 am 08:54 Mostly Sunny 79 26.1 57 13.9 47 47 WNW 6 9 30.14 1021 10 16 0.00 0.00
9:54 am 09:54 Mostly Sunny 81 27.2 54 12.2 39 39 NW 9 15 30.14 1021 10 16 0.00 0.00
10:54 am 10:54 Mostly Sunny 82 27.8 50 10 33 33 NW 9 15 30.13 1020 10 16 0.00 0.00
11:54 am 11:54 Mostly Sunny 85 29.4 51 10.6 31 31 N 9 15 30.13 1020 10 16 0.00 0.00
12:54 pm 12:54 Mostly Sunny 85 29.4 54 12.2 35 35 WNW 6 9 30.12 1020 10 16 0.00 0.00
1:54 pm 13:54 Mostly Sunny 86 30 53 11.7 32 32 WSW 7 11 30.10 1019 10 16 0.00 0.00
2:54 pm 14:54 Mostly Sunny 86 30 52 11.1 31 31 W 9 15 30.09 1019 10 16 0.00 0.00
3:54 pm 15:54 Partly Cloudy 86 30 54 12.2 33 33 WSW 9 15 30.07 1018 10 16 0.00 0.00
4:54 pm 16:54 Partly Cloudy 84 28.9 54 12.2 36 36 W 7 11 30.05 1018 10 16 0.00 0.00
5:54 pm 17:54 Mostly Cloudy 83 28.3 53 11.7 36 36 W 8 13 30.04 1017 10 16 0.00 0.00
6:54 pm 18:54 Mostly Cloudy 82 27.8 57 13.9 42 42 WNW 5 7 30.04 1017 10 16 0.00 0.00
7:54 pm 19:54 Partly Cloudy 82 27.8 57 13.9 42 42 WNW 5 7 30.04 1017 10 16 0.00 0.00
8:54 pm 20:54 Partly Cloudy 77 25 55 12.8 47 47 NW 6 9 30.05 1018 10 16 0.00 0.00
9:54 pm 21:54 Mostly Clear 76 24.4 52 11.1 43 43 NW 5 7 30.07 1018 10 16 0.00 0.00
10:54 pm 22:54 Mostly Clear 74 23.3 51 10.6 45 45 NNW 5 7 30.08 1019 10 16 0.00 0.00
11:54 pm 23:54 Clear 71 21.7 51 10.6 49 49 VRB 6 9 30.09 1019 10 16 0.00 0.00

Powered by AerisWeather